GLO1371 SBSR-SBSP

Flight info

Callsign GLO1371
Flight time 0h 45m
Altitude 35000
Route UPONA DCT UTLOT
Aircraft B737/M-SDE2E3FGHIRWXY/LB1

Departure

Time 2026-05-08 11:49
Airport Prof. Eribelto Manoel Reino State Airport (SBSR)

Arrival

Time 2026-05-08 12:34
Airport Congonhas–Deputado Freitas Nobre Airport (SBSP)
Time Latitude Longitude Altitude Speed Heading
2026-05-08 11:28 -20.81258 -49.40392 1760 ft 0 kts 321°
2026-05-08 11:40 -20.81264 -49.40387 1765 ft 6 kts 320°
2026-05-08 11:40 -20.81295 -49.40359 1764 ft 6 kts 319°
2026-05-08 11:40 -20.81314 -49.40339 1765 ft 2 kts 304°
2026-05-08 11:40 -20.81320 -49.40327 1765 ft 2 kts 268°
2026-05-08 11:41 -20.81317 -49.40316 1763 ft 2 kts 236°
2026-05-08 11:41 -20.81311 -49.40307 1762 ft 0 kts 233°
2026-05-08 11:43 -20.81312 -49.40308 1762 ft 1 kts 233°
2026-05-08 11:43 -20.81324 -49.40326 1761 ft 5 kts 233°
2026-05-08 11:43 -20.81355 -49.40368 1762 ft 9 kts 230°
2026-05-08 11:43 -20.81385 -49.40405 1760 ft 11 kts 229°
2026-05-08 11:44 -20.81455 -49.40496 1761 ft 13 kts 231°
2026-05-08 11:44 -20.81495 -49.40549 1762 ft 14 kts 232°
2026-05-08 11:44 -20.81528 -49.40640 1759 ft 14 kts 302°
2026-05-08 11:44 -20.81539 -49.40729 1762 ft 14 kts 232°
2026-05-08 11:45 -20.81618 -49.40835 1761 ft 15 kts 231°
2026-05-08 11:45 -20.81662 -49.40894 1760 ft 16 kts 231°
2026-05-08 11:45 -20.81733 -49.40989 1760 ft 17 kts 231°
2026-05-08 11:45 -20.81807 -49.41088 1760 ft 17 kts 232°
2026-05-08 11:46 -20.81882 -49.41180 1760 ft 16 kts 226°
2026-05-08 11:46 -20.81957 -49.41264 1762 ft 16 kts 227°
2026-05-08 11:46 -20.82047 -49.41297 1763 ft 12 kts 171°
2026-05-08 11:46 -20.82128 -49.41289 1760 ft 11 kts 183°
2026-05-08 11:47 -20.82140 -49.41270 1759 ft 4 kts 64°
2026-05-08 11:47 -20.82135 -49.41262 1759 ft 0 kts 51°
2026-05-08 11:48 -20.82038 -49.41132 1763 ft 63 kts 51°
2026-05-08 11:48 -20.81588 -49.40534 1774 ft 138 kts 50°
2026-05-08 11:48 -20.80904 -49.39662 2322 ft 161 kts 49°
2026-05-08 11:49 -20.80145 -49.38686 3081 ft 179 kts 46°
2026-05-08 11:49 -20.79324 -49.37613 3766 ft 198 kts 45°
2026-05-08 11:49 -20.78414 -49.36380 4127 ft 233 kts 52°
2026-05-08 11:49 -20.77969 -49.34568 4444 ft 278 kts 90°
2026-05-08 11:50 -20.78620 -49.32549 5196 ft 298 kts 122°
2026-05-08 11:50 -20.79946 -49.30871 6466 ft 296 kts 133°
2026-05-08 11:50 -20.81467 -49.29366 7500 ft 300 kts 137°
2026-05-08 11:50 -20.83052 -49.27891 8493 ft 305 kts 137°
2026-05-08 11:51 -20.84672 -49.26387 9512 ft 310 kts 137°
2026-05-08 11:51 -20.86301 -49.24856 10456 ft 315 kts 137°
2026-05-08 11:51 -20.87955 -49.23282 11300 ft 322 kts 137°
2026-05-08 11:51 -20.89631 -49.21670 12199 ft 326 kts 137°
2026-05-08 11:52 -20.91323 -49.20030 13120 ft 329 kts 138°
2026-05-08 11:52 -20.93030 -49.18370 14010 ft 333 kts 139°
2026-05-08 11:52 -20.94759 -49.16681 14790 ft 338 kts 138°
2026-05-08 11:52 -20.96504 -49.14974 15583 ft 342 kts 138°
2026-05-08 11:53 -20.98272 -49.13242 16355 ft 347 kts 138°
2026-05-08 11:53 -21.00068 -49.11481 17110 ft 352 kts 138°
2026-05-08 11:53 -21.01884 -49.09699 17887 ft 357 kts 137°
2026-05-08 11:53 -21.03726 -49.07890 18616 ft 361 kts 137°
2026-05-08 11:54 -21.05565 -49.06085 19269 ft 365 kts 137°
2026-05-08 11:54 -21.07448 -49.04235 19916 ft 370 kts 138°
2026-05-08 11:54 -21.09359 -49.02356 20563 ft 376 kts 138°
2026-05-08 11:54 -21.11298 -49.00450 21221 ft 380 kts 138°
2026-05-08 11:55 -21.13259 -48.98521 21875 ft 385 kts 138°
2026-05-08 11:55 -21.15246 -48.96566 22513 ft 390 kts 138°
2026-05-08 11:55 -21.17261 -48.94584 23139 ft 396 kts 138°
2026-05-08 11:55 -21.19312 -48.92565 23692 ft 403 kts 138°
2026-05-08 11:56 -21.21398 -48.90541 24239 ft 406 kts 141°
2026-05-08 11:56 -21.23612 -48.88656 24881 ft 406 kts 144°
2026-05-08 11:56 -21.25851 -48.86869 25491 ft 408 kts 146°
2026-05-08 11:56 -21.28185 -48.85049 26090 ft 411 kts 146°
2026-05-08 11:57 -21.30474 -48.83268 26647 ft 414 kts 146°
2026-05-08 11:57 -21.32810 -48.81442 27225 ft 417 kts 146°
2026-05-08 11:57 -21.35155 -48.79595 27794 ft 420 kts 146°
2026-05-08 11:57 -21.37513 -48.77728 28341 ft 424 kts 146°
2026-05-08 11:58 -21.39897 -48.75833 28816 ft 429 kts 146°
2026-05-08 11:58 -21.42301 -48.73917 29355 ft 432 kts 146°
2026-05-08 11:58 -21.44720 -48.71985 29932 ft 434 kts 146°
2026-05-08 11:59 -21.49592 -48.68091 30846 ft 440 kts 147°
2026-05-08 11:59 -21.52055 -48.66121 31256 ft 443 kts 147°
2026-05-08 11:59 -21.54529 -48.64141 31693 ft 445 kts 147°
2026-05-08 11:59 -21.57013 -48.62152 32162 ft 446 kts 147°
2026-05-08 12:00 -21.59522 -48.60143 32453 ft 452 kts 147°
2026-05-08 12:00 -21.62053 -48.58117 32768 ft 456 kts 147°
2026-05-08 12:00 -21.64602 -48.56074 33166 ft 458 kts 147°
2026-05-08 12:00 -21.67127 -48.54049 33558 ft 459 kts 147°
2026-05-08 12:01 -21.69695 -48.51989 33907 ft 462 kts 147°
2026-05-08 12:01 -21.72273 -48.49920 34212 ft 464 kts 147°
2026-05-08 12:01 -21.74867 -48.47837 34503 ft 466 kts 147°
2026-05-08 12:01 -21.77468 -48.45748 34811 ft 467 kts 147°
2026-05-08 12:02 -21.80077 -48.43651 35039 ft 470 kts 147°
2026-05-08 12:02 -21.82719 -48.41529 35031 ft 477 kts 147°
2026-05-08 12:02 -21.88066 -48.37228 35038 ft 479 kts 147°
2026-05-08 12:03 -21.93374 -48.32948 35046 ft 475 kts 147°
2026-05-08 12:03 -21.98661 -48.28685 35055 ft 474 kts 147°
2026-05-08 12:04 -22.03946 -48.24422 35053 ft 474 kts 147°
2026-05-08 12:04 -22.09221 -48.20162 35060 ft 473 kts 147°
2026-05-08 12:05 -22.14458 -48.15928 35057 ft 474 kts 147°
2026-05-08 12:05 -22.19739 -48.11656 35059 ft 474 kts 147°
2026-05-08 12:06 -22.25017 -48.07380 35060 ft 475 kts 147°
2026-05-08 12:06 -22.30301 -48.03096 35061 ft 475 kts 147°
2026-05-08 12:07 -22.35594 -47.98800 35062 ft 476 kts 147°
2026-05-08 12:07 -22.40890 -47.94497 35049 ft 476 kts 147°
2026-05-08 12:08 -22.46183 -47.90194 34367 ft 483 kts 146°
2026-05-08 12:08 -22.48694 -47.87767 33681 ft 487 kts 133°
2026-05-08 12:08 -22.50868 -47.84942 32942 ft 488 kts 130°
2026-05-08 12:09 -22.52975 -47.82055 32153 ft 490 kts 130°
2026-05-08 12:09 -22.55077 -47.79145 31347 ft 492 kts 130°
2026-05-08 12:09 -22.57204 -47.76227 30501 ft 495 kts 130°
2026-05-08 12:09 -22.59358 -47.73311 29530 ft 498 kts 130°
2026-05-08 12:10 -22.61529 -47.70403 28825 ft 493 kts 130°
2026-05-08 12:10 -22.63679 -47.67537 28148 ft 488 kts 130°
2026-05-08 12:10 -22.65813 -47.64697 27495 ft 483 kts 130°
2026-05-08 12:10 -22.67925 -47.61885 26856 ft 479 kts 130°
2026-05-08 12:11 -22.70015 -47.59098 26216 ft 475 kts 130°
2026-05-08 12:11 -22.72088 -47.56331 25561 ft 472 kts 130°
2026-05-08 12:11 -22.74149 -47.53578 24911 ft 469 kts 130°
2026-05-08 12:11 -22.76198 -47.50839 24275 ft 466 kts 130°
2026-05-08 12:12 -22.78229 -47.48121 23699 ft 462 kts 129°
2026-05-08 12:12 -22.80215 -47.45461 23087 ft 457 kts 129°
2026-05-08 12:12 -22.82202 -47.42798 22528 ft 450 kts 129°
2026-05-08 12:12 -22.84157 -47.40176 22008 ft 444 kts 129°
2026-05-08 12:13 -22.86085 -47.37590 21485 ft 437 kts 129°
2026-05-08 12:13 -22.87984 -47.35040 20993 ft 431 kts 128°
2026-05-08 12:13 -22.89852 -47.32531 20507 ft 425 kts 128°
2026-05-08 12:13 -22.91697 -47.30051 20016 ft 419 kts 128°
2026-05-08 12:14 -22.93495 -47.27634 19548 ft 414 kts 128°
2026-05-08 12:14 -22.95293 -47.25215 19060 ft 410 kts 128°
2026-05-08 12:14 -22.97074 -47.22818 18572 ft 406 kts 128°
2026-05-08 12:14 -22.98839 -47.20442 18057 ft 402 kts 127°
2026-05-08 12:15 -23.00589 -47.18087 17555 ft 398 kts 128°
2026-05-08 12:15 -23.02620 -47.16085 17054 ft 395 kts 148°
2026-05-08 12:15 -23.05111 -47.14901 16762 ft 390 kts 166°
2026-05-08 12:15 -23.07755 -47.14273 16456 ft 390 kts 170°
2026-05-08 12:16 -23.10442 -47.13727 16137 ft 394 kts 170°
2026-05-08 12:16 -23.13145 -47.13183 15809 ft 396 kts 170°
2026-05-08 12:16 -23.15855 -47.12620 15453 ft 395 kts 169°
2026-05-08 12:16 -23.18546 -47.12041 15142 ft 394 kts 169°
2026-05-08 12:17 -23.21235 -47.11451 14782 ft 393 kts 169°
2026-05-08 12:17 -23.23910 -47.10860 14444 ft 392 kts 169°
2026-05-08 12:17 -23.26579 -47.10271 14134 ft 391 kts 169°
2026-05-08 12:17 -23.29250 -47.09685 13795 ft 391 kts 169°
2026-05-08 12:18 -23.31909 -47.09103 13440 ft 388 kts 170°
2026-05-08 12:18 -23.34547 -47.08526 13106 ft 385 kts 170°
2026-05-08 12:18 -23.37156 -47.07953 12781 ft 380 kts 170°
2026-05-08 12:18 -23.39699 -47.07387 12476 ft 376 kts 168°
2026-05-08 12:19 -23.42097 -47.06281 12145 ft 377 kts 146°
2026-05-08 12:19 -23.44005 -47.04366 11837 ft 373 kts 126°
2026-05-08 12:19 -23.45446 -47.02032 11560 ft 370 kts 121°
2026-05-08 12:19 -23.46807 -46.99645 11267 ft 372 kts 120°
2026-05-08 12:20 -23.48155 -46.97254 10951 ft 367 kts 120°
2026-05-08 12:20 -23.49472 -46.94942 10621 ft 351 kts 120°
2026-05-08 12:20 -23.50739 -46.92743 10310 ft 334 kts 121°
2026-05-08 12:20 -23.51952 -46.90651 10064 ft 320 kts 121°
2026-05-08 12:21 -23.53132 -46.88625 9803 ft 314 kts 121°
2026-05-08 12:21 -23.54295 -46.86628 9563 ft 311 kts 121°
2026-05-08 12:21 -23.55454 -46.84640 9310 ft 312 kts 121°
2026-05-08 12:21 -23.56726 -46.82731 9107 ft 312 kts 136°
2026-05-08 12:22 -23.58454 -46.81383 9115 ft 308 kts 149°
2026-05-08 12:22 -23.60280 -46.80154 9093 ft 309 kts 149°
2026-05-08 12:22 -23.62111 -46.78912 9107 ft 311 kts 149°
2026-05-08 12:22 -23.63945 -46.77654 9097 ft 312 kts 148°
2026-05-08 12:23 -23.65785 -46.76386 8929 ft 316 kts 148°
2026-05-08 12:23 -23.67646 -46.75097 8694 ft 316 kts 148°
2026-05-08 12:23 -23.69496 -46.73816 8462 ft 313 kts 148°
2026-05-08 12:23 -23.71327 -46.72546 8158 ft 310 kts 148°
2026-05-08 12:24 -23.73137 -46.71290 7911 ft 306 kts 148°
2026-05-08 12:24 -23.74925 -46.70048 7695 ft 306 kts 148°
2026-05-08 12:24 -23.76727 -46.68796 7458 ft 307 kts 148°
2026-05-08 12:24 -23.78517 -46.67555 7228 ft 304 kts 148°
2026-05-08 12:25 -23.80316 -46.66306 7012 ft 310 kts 148°
2026-05-08 12:25 -23.82120 -46.65052 6788 ft 312 kts 148°
2026-05-08 12:25 -23.83948 -46.63780 6550 ft 311 kts 148°
2026-05-08 12:25 -23.85771 -46.62513 6299 ft 310 kts 149°
2026-05-08 12:26 -23.87590 -46.61255 6123 ft 307 kts 144°
2026-05-08 12:26 -23.88966 -46.59527 5823 ft 301 kts 109°
2026-05-08 12:26 -23.89343 -46.57371 5608 ft 282 kts 79°
2026-05-08 12:26 -23.88929 -46.55350 5365 ft 267 kts 58°
2026-05-08 12:27 -23.87963 -46.53683 5294 ft 255 kts 39°
2026-05-08 12:27 -23.86595 -46.52520 5251 ft 245 kts 20°
2026-05-08 12:27 -23.85018 -46.51967 5252 ft 233 kts
2026-05-08 12:27 -23.83429 -46.51931 5243 ft 223 kts 351°
2026-05-08 12:28 -23.82021 -46.52345 5259 ft 206 kts 334°
2026-05-08 12:28 -23.80794 -46.53077 5259 ft 197 kts 329°
2026-05-08 12:28 -23.79635 -46.53857 5261 ft 193 kts 328°
2026-05-08 12:28 -23.78544 -46.54612 5268 ft 177 kts 328°
2026-05-08 12:29 -23.77563 -46.55291 5259 ft 156 kts 328°
2026-05-08 12:29 -23.76698 -46.55890 5257 ft 141 kts 328°
2026-05-08 12:29 -23.75866 -46.56470 5259 ft 142 kts 328°
2026-05-08 12:29 -23.75060 -46.57030 5228 ft 132 kts 330°
2026-05-08 12:30 -23.74324 -46.57542 5070 ft 118 kts 331°
2026-05-08 12:30 -23.73680 -46.57991 4949 ft 103 kts 331°
2026-05-08 12:30 -23.73094 -46.58398 4813 ft 98 kts 332°
2026-05-08 12:30 -23.72513 -46.58802 4686 ft 101 kts 334°
2026-05-08 12:31 -23.71892 -46.59230 4560 ft 109 kts 330°
2026-05-08 12:31 -23.71259 -46.59671 4413 ft 108 kts 330°
2026-05-08 12:31 -23.70624 -46.60113 4251 ft 107 kts 331°
2026-05-08 12:31 -23.69979 -46.60561 4128 ft 112 kts 331°
2026-05-08 12:32 -23.69316 -46.61023 3963 ft 113 kts 333°
2026-05-08 12:32 -23.68649 -46.61486 3836 ft 115 kts 333°
2026-05-08 12:32 -23.67964 -46.61961 3684 ft 117 kts 332°
2026-05-08 12:32 -23.67257 -46.62454 3545 ft 120 kts 330°
2026-05-08 12:33 -23.66560 -46.62938 3371 ft 118 kts 330°
2026-05-08 12:33 -23.65856 -46.63427 3208 ft 121 kts 333°
2026-05-08 12:33 -23.65114 -46.63945 3021 ft 132 kts 332°
2026-05-08 12:33 -23.64377 -46.64469 2879 ft 121 kts 336°
2026-05-08 12:34 -23.63688 -46.64944 2689 ft 120 kts 332°
2026-05-08 12:34 -23.62998 -46.65418 2610 ft 105 kts 328°
2026-05-08 12:34 -23.62625 -46.65672 2604 ft 48 kts 328°
2026-05-08 12:34 -23.62363 -46.65856 2600 ft 41 kts 327°
2026-05-08 12:35 -23.62205 -46.65976 2595 ft 19 kts 302°
2026-05-08 12:35 -23.62269 -46.66027 2599 ft 16 kts 153°
2026-05-08 12:35 -23.62362 -46.65965 2599 ft 15 kts 147°
2026-05-08 12:35 -23.62409 -46.65942 2600 ft 6 kts 195°
2026-05-08 12:36 -23.62437 -46.65984 2599 ft 7 kts 238°
2026-05-08 12:36 -23.62451 -46.66008 2599 ft 0 kts 238°